Location: Central Falls
(41.8900°N, 71.3929°W)
Time: 13:48:50
(UTC+00:00)

Explorer 7 - Visible Passes

Search period start: 03 December 2023 00:00
Search period end: 13 December 2023 00:00
Orbit: 472 x 640 km, 50.3° (Epoch: 02 December)

Date Brightness Start Highest point End Pass type
(mag) Time Alt. Az. Time Alt. Az. Time Alt. Az.
03 Dec 8.2 23:10:19 10° WNW 23:13:13 23° N 23:13:13 23° N visible
04 Dec 8.2 23:07:02 10° NW 23:09:50 22° N 23:09:50 22° N visible
05 Dec 8.2 23:03:42 10° NW 23:06:27 22° N 23:06:27 22° N visible
06 Dec 8.2 23:00:16 10° NW 23:03:03 22° N 23:03:03 22° N visible
07 Dec 8.0 22:56:46 10° NW 22:59:40 24° N 22:59:40 24° N visible
08 Dec 7.8 22:53:12 10° NW 22:56:18 26° N 22:56:18 26° N visible
09 Dec 7.6 22:49:35 10° NW 22:52:52 30° NNE 22:52:58 29° NNE visible
10 Dec 7.2 22:45:55 10° NW 22:49:20 35° NNE 22:49:43 34° NE visible
11 Dec 6.9 22:42:12 10° NW 22:45:44 43° NNE 22:46:33 37° ENE visible
12 Dec 9.9 00:22:11 10° WNW 00:22:20 11° WNW 00:22:20 11° WNW visible
12 Dec 6.6 22:38:28 10° NW 22:42:06 57° NNE 22:43:30 33° E visible
